Booneville, Arkansas, United States (72927)
Lat: 35.14N, Lon: 93.92W
Wx Zone: ARZ030
Local Info
Past Weather Observations for Saturday, October 25, 2014

NOTE: This archive is for the closest National Weather Service station to Booneville. Information may differ from the station used for current weather conditions.

Click here for Long-term Archive

Time Weather Temperature Dewpoint Humidity Pressure Winds Precip Visibility
23:53
Clear
Fog And Mist
64°F / 18°C 63°F / 17°C 94% 30.01 in
(1016 mb)
NE 3.5 mph
(NE 6 kph)
- 5SM
22:53
Clear
Fog And Mist
66°F / 19°C 63°F / 17°C 88% 30.04 in
(1017 mb)
ENE 4.6 mph
(ENE 7 kph)
- 5SM
21:53
Clear
66°F / 19°C 63°F / 17°C 88% 30.04 in
(1017 mb)
Calm - 8SM
20:53
Clear
66°F / 19°C 63°F / 17°C 88% 30.04 in
(1017 mb)
Calm - 10SM
19:53
Clear
68°F / 20°C 64°F / 18°C 88% 30.04 in
(1017 mb)
Calm - 10SM
18:53
Clear
72°F / 22°C 64°F / 18°C 78% 30.04 in
(1017 mb)
Calm - 10SM
17:53
Clear
75°F / 24°C 64°F / 18°C 69% 30.04 in
(1017 mb)
Calm - 10SM
16:53
Clear
84°F / 29°C 63°F / 17°C 48% 30.04 in
(1017 mb)
SW 3.5 mph
(SW 6 kph)
- 10SM
15:53
Clear
86°F / 30°C 61°F / 16°C 43% 30.04 in
(1017 mb)
SSW 3.5 mph
(SSW 6 kph)
- 10SM
14:53
Clear
86°F / 30°C 61°F / 16°C 43% 30.04 in
(1017 mb)
Calm - 9SM
13:53
Clear
84°F / 29°C 61°F / 16°C 45% 30.04 in
(1017 mb)
W 6.9 mph
(W 11 kph)
- 8SM
12:53
Clear
82°F / 28°C 61°F / 16°C 48% 30.06 in
(1018 mb)
SSW 8.1 mph
(SSW 13 kph)
- 10SM
11:53
Clear
79°F / 26°C 61°F / 16°C 54% 30.09 in
(1019 mb)
SSW 4.6 mph
(SSW 7 kph)
- 10SM
10:53
Clear
73°F / 23°C 61°F / 16°C 65% 30.12 in
(1020 mb)
Calm - 10SM
09:53
Clear
68°F / 20°C 61°F / 16°C 78% 30.12 in
(1020 mb)
NE 4.6 mph
(NE 7 kph)
- 10SM
09:17
Clear
63°F / 17°C 61°F / 16°C 94% 30.12 in
(1020 mb)
NE 4.6 mph
(NE 7 kph)
- 3SM
09:07
Mostly Cloudy
Fog And Mist
63°F / 17°C 61°F / 16°C 94% 30.12 in
(1020 mb)
NE 3.5 mph
(NE 6 kph)
- 2SM
09:01
Obscured
Fog And Mist
61°F / 16°C 59°F / 15°C 94% 30.12 in
(1020 mb)
Calm - 3/4SM
08:53
Obscured
Fog
61°F / 16°C 59°F / 15°C 94% 30.12 in
(1020 mb)
ENE 3.5 mph
(ENE 6 kph)
- 1/4SM
08:49
Obscured
Fog
61°F / 16°C 59°F / 15°C 94% 30.12 in
(1020 mb)
ENE 3.5 mph
(ENE 6 kph)
- 1/4SM
07:53
Obscured
Fog
57°F / 14°C 55°F / 13°C 94% 30.12 in
(1020 mb)
Calm - M1/4SM
07:41
Obscured
Fog
57°F / 14°C 55°F / 13°C 94% 30.12 in
(1020 mb)
ENE 3.5 mph
(ENE 6 kph)
- M1/4SM
07:08
Obscured
Fog
55°F / 13°C 55°F / 13°C 100% 30.12 in
(1020 mb)
ENE 3.5 mph
(ENE 6 kph)
- 1/4SM
07:00
Mostly Cloudy
Fog And Mist
57°F / 14°C 55°F / 13°C 94% 30.12 in
(1020 mb)
ENE 4.6 mph
(ENE 7 kph)
- 3/4SM
06:53
Mostly Cloudy
Fog And Mist
55°F / 13°C 54°F / 12°C 94% 30.12 in
(1020 mb)
E 3.5 mph
(E 6 kph)
- 2SM
06:32
Partly Cloudy
Fog And Mist
55°F / 13°C 54°F / 12°C 94% 30.12 in
(1020 mb)
ENE 3.5 mph
(ENE 6 kph)
- 2SM
06:23
Partly Cloudy
Fog And Mist
55°F / 13°C 54°F / 12°C 94% 30.09 in
(1019 mb)
Calm - 4SM
06:16
Mostly Cloudy
Fog And Mist
55°F / 13°C 54°F / 12°C 94% 30.09 in
(1019 mb)
Calm - 2 1/2SM
06:11
Obscured
Fog And Mist
55°F / 13°C 54°F / 12°C 94% 30.09 in
(1019 mb)
Calm - 3/4SM
06:04
Obscured
Fog And Mist
55°F / 13°C 54°F / 12°C 94% 30.09 in
(1019 mb)
Calm - 1SM
06:01
Partly Cloudy
Fog And Mist
55°F / 13°C 54°F / 12°C 94% 30.09 in
(1019 mb)
Calm - 2 1/2SM
05:53
Clear
55°F / 13°C 52°F / 11°C 88% 30.09 in
(1019 mb)
Calm - 7SM
05:17
Clear
Fog And Mist
57°F / 14°C 55°F / 13°C 94% 30.09 in
(1019 mb)
Calm - 3SM
04:53
Clear
Fog And Mist
57°F / 14°C 55°F / 13°C 94% 30.09 in
(1019 mb)
Calm - 2 1/2SM
04:15
Clear
Fog And Mist
57°F / 14°C 57°F / 14°C 100% 30.09 in
(1019 mb)
Calm - 5SM
04:05
Clear
Fog And Mist
57°F / 14°C 57°F / 14°C 100% 30.09 in
(1019 mb)
Calm - 2SM
03:53
Clear
Fog And Mist
57°F / 14°C 57°F / 14°C 100% 30.09 in
(1019 mb)
ENE 3.5 mph
(ENE 6 kph)
- 4SM
02:53
Clear
59°F / 15°C 55°F / 13°C 88% 30.09 in
(1019 mb)
ENE 3.5 mph
(ENE 6 kph)
- 7SM
01:53
Clear
Fog And Mist
61°F / 16°C 57°F / 14°C 88% 30.09 in
(1019 mb)
Calm - 5SM
00:53
Clear
61°F / 16°C 57°F / 14°C 88% 30.09 in
(1019 mb)
NE 3.5 mph
(NE 6 kph)
- 8SM
Time Weather Temperature Dewpoint Humidity Pressure Winds Precip Visibility


Weather for websites

WeatherForYou.com, LLC is not responsible for any damages or problems caused by this service. Current weather conditions are obtained from the closest station including government and personal stations which may have varying degrees of accuracy. Weather forecasts are derived from the NOAA NDFD. Like all things, this site belongs to Jesus Christ... He just trusts me to maintain it. If you have any questions or comments email webmaster@weatherforyou.com

Copyright © 2014, WeatherForYou.com LLC. All rights reserved.